{"data":{"norad_id":58732,"intl_designator":"2024-005E","name":"STARLINK-31180","alt_names":[],"object_type":"PAYLOAD","status":"ACTIVE","operator":null,"country":"US","launch_date":"2024-01-07","launch_site_code":"AFETR","launch_vehicle":null,"mission":null,"orbit_class":"UNKNOWN","rcs_meters":null,"size_class":null,"mass_kg":null,"dimensions":null,"purposes":["comms"],"wikipedia_slug":null,"has_3d_model":false,"image_url":null,"decayed_at":null,"tle_current":{"epoch":"2026-09-20T12:56:01.519872Z","epoch_age_seconds":146361,"freshness":"FRESH","line1":"1 58732U 24005E   26263.53890648  .00002197  00000+0  89299-4 0  9997","line2":"2 58732  43.0015 199.3308 0000484 272.9543  87.1253 15.27583874150238","mean_motion":15.27583874,"eccentricity":4.84e-5,"inclination_deg":43.0015,"raan_deg":199.3308,"arg_perigee_deg":272.9543,"mean_anomaly_deg":87.1253,"bstar":8.9299e-5,"rev_number":15023,"period_min":94.266509650258,"perigee_km":482.7054150689,"apogee_km":483.36957676011,"semimajor_km":6861.1744959145,"source":"CELESTRAK","updated_at":"2026-09-21T09:00:33.951882Z"}}}